Terminal Aerodrome Forecast
Issued by NWS Dodge City, KS

Home | Current Version | Previous Version | Graphics & Text | Print | Product List | Glossary Off
Versions: 1 2 3 4 5 6 7 8 9 10 11 12 13 14 15 16 17 18 19 20 21 22 23 24 25 26 27 28 29 30 31 32 33 34 35 36 37 38 39 40 41 42 43 44 45 46 47 48 49 50

000
FTUS43 KDDC 232043 AAA
TAFDDC
TAF AMD
KDDC 232043Z 2321/2418 12015G22KT P6SM BKN011
     FM240300 15010KT 5SM BR OVC005
     FM240700 15010KT 1SM BR OVC002
     FM241500 15015G22KT P6SM BKN025=

USA.gov is the U.S. government's official web portal to all federal, state and local government web resources and services.